SR9NSK-1 Weather Reports


Display with metric or nautical units.
time (UTC)temp
F
wind
direction
speed
MPH
gust
MPH
rain 1hr
in
rain 24hr
in
rain mn
in
humidity
%
barometer
mb
20260905191117 50 270 17.0 24.0 0.00 0.00 0.00 74 879.3
20260905190916 50 272 16.0 26.0 0.00 0.00 0.00 74 879.3
20260905190716 50 271 17.0 26.0 0.00 0.00 0.00 74 879.3
20260905190514 50 267 15.0 20.0 0.00 0.00 0.00 74 879.3
20260905190314 50 268 17.0 25.0 0.00 0.00 0.00 74 879.3
20260905190114 50 273 16.0 25.0 0.00 0.00 0.00 74 879.2
20260905185915 50 277 16.0 26.0 0.00 0.00 0.00 74 879.2
20260905185715 50 273 17.0 22.0 0.00 0.00 0.00 74 879.3
20260905185515 50 274 17.0 25.0 0.00 0.00 0.00 74 879.2
20260905185315 50 277 16.0 25.0 0.00 0.00 0.00 74 879.2
20260905185115 50 274 16.0 32.0 0.00 0.00 0.00 74 879.2
20260905184915 50 275 16.0 24.0 0.00 0.00 0.00 74 879.2
20260905184715 50 261 16.0 24.0 0.00 0.00 0.00 74 879.1
20260905184513 50 265 13.0 24.0 0.00 0.00 0.00 74 879.1
20260905184313 50 270 15.0 24.0 0.00 0.00 0.00 74 879.1
20260905184113 50 275 17.0 24.0 0.00 0.00 0.00 74 879.0
20260905183913 50 274 20.0 28.0 0.00 0.00 0.00 74 879.0
20260905183714 50 266 20.0 30.0 0.00 0.00 0.00 74 879.0
20260905183513 50 259 19.0 30.0 0.00 0.00 0.00 74 879.0
20260905183313 50 266 18.0 25.0 0.00 0.00 0.00 74 879.0
20260905183113 50 270 18.0 25.0 0.00 0.00 0.00 74 879.0
20260905182913 51 270 20.0 31.0 0.00 0.00 0.00 74 879.0
20260905182711 51 268 17.0 30.0 0.00 0.00 0.00 74 879.1
20260905182600 51 268 16.0 27.0 0.00 0.00 0.00 74 879.1
20260905182509 51 268 16.0 27.0 0.00 0.00 0.00 74 879.1
20260905182309 51 269 16.0 29.0 0.00 0.00 0.00 74 879.1
20260905182109 51 271 17.0 29.0 0.00 0.00 0.00 74 879.0
20260905181909 51 263 19.0 29.0 0.00 0.00 0.00 74 879.0
20260905181709 51 258 20.0 27.0 0.00 0.00 0.00 74 879.0
20260905181459 51 267 19.0 30.0 0.00 0.00 0.00 74 879.0
20260905181259 51 270 18.0 33.0 0.00 0.00 0.00 74 879.0
20260905181059 51 276 18.0 33.0 0.00 0.00 0.00 75 879.0
20260905180859 50 267 16.0 24.0 0.00 0.00 0.00 75 879.0
20260905180659 50 267 17.0 24.0 0.00 0.00 0.00 75 879.0
20260905180457 50 254 16.0 27.0 0.00 0.00 0.00 75 879.0
20260905180257 50 258 16.0 27.0 0.00 0.00 0.00 75 879.0
20260905180057 50 265 13.0 19.0 0.00 0.00 0.00 75 879.0
20260905175857 50 265 16.0 24.0 0.00 0.00 0.00 75 879.0
20260905175658 50 259 14.0 24.0 0.00 0.00 0.00 75 879.0
20260905175455 51 262 13.0 19.0 0.00 0.00 0.00 75 879.0
20260905175256 51 267 14.0 20.0 0.00 0.00 0.00 75 879.0
20260905175056 51 263 14.0 23.0 0.00 0.00 0.00 75 878.9
20260905175032 51 263 16.0 28.0 0.00 0.00 0.00 75 878.9
20260905174856 51 263 16.0 28.0 0.00 0.00 0.00 75 878.9
20260905174655 51 260 17.0 26.0 0.00 0.00 0.00 75 878.8
20260905174453 51 265 15.0 26.0 0.00 0.00 0.00 74 878.8
20260905174253 51 258 14.0 22.0 0.00 0.00 0.00 74 878.8
20260905174053 51 264 17.0 24.0 0.00 0.00 0.00 74 878.8
20260905173853 51 266 16.0 24.0 0.00 0.00 0.00 74 878.8
20260905173654 0 269 13.0 17.0 0.00 0.00 0.00 74 878.8
20260905173453 51 270 16.0 23.0 0.00 0.00 0.00 74 878.7
20260905173253 51 270 17.0 23.0 0.00 0.00 0.00 74 878.7
20260905173053 51 266 16.0 20.0 0.00 0.00 0.00 74 878.7
20260905172853 51 268 16.0 29.0 0.00 0.00 0.00 74 878.7
20260905172653 51 272 16.0 29.0 0.00 0.00 0.00 74 878.7
20260905172451 51 270 17.0 28.0 0.00 0.00 0.00 74 878.7
20260905172251 51 271 17.0 28.0 0.00 0.00 0.00 74 878.7
20260905172051 51 267 18.0 25.0 0.00 0.00 0.00 74 878.7
20260905171847 51 271 16.0 25.0 0.00 0.00 0.00 74 878.7
20260905171647 51 269 17.0 23.0 0.00 0.00 0.00 74 878.6
20260905171247 51 276 17.0 23.0 0.00 0.00 0.00 74 878.6
20260905171047 51 266 17.0 25.0 0.00 0.00 0.00 74 878.6
20260905170848 51 263 16.0 25.0 0.00 0.00 0.00 74 878.6
20260905170647 51 263 16.0 24.0 0.00 0.00 0.00 74 878.6
20260905170445 51 270 16.0 24.0 0.00 0.00 0.00 74 878.6
20260905170245 51 270 17.0 25.0 0.00 0.00 0.00 74 878.5
20260905170045 51 269 18.0 32.0 0.00 0.00 0.00 74 878.5
20260905165846 51 259 19.0 28.0 0.00 0.00 0.00 74 878.5
20260905165646 51 263 20.0 28.0 0.00 0.00 0.00 74 878.4
20260905165446 51 261 20.0 28.0 0.00 0.00 0.00 74 878.4
20260905165246 51 264 17.0 26.0 0.00 0.00 0.00 74 878.3
20260905165045 51 258 17.0 26.0 0.00 0.00 0.00 74 878.3
20260905164845 51 257 17.0 29.0 0.00 0.00 0.00 74 878.3
20260905164645 51 253 16.0 22.0 0.00 0.00 0.00 74 878.3
20260905164443 52 268 14.0 22.0 0.00 0.00 0.00 74 878.4
20260905164243 52 275 15.0 22.0 0.00 0.00 0.00 74 878.3
20260905164043 52 269 17.0 29.0 0.00 0.00 0.00 74 878.3
20260905163843 52 267 17.0 29.0 0.00 0.00 0.00 74 878.3
20260905163643 52 270 18.0 28.0 0.00 0.00 0.00 74 878.3
20260905163443 53 264 17.0 28.0 0.00 0.00 0.00 74 878.3
20260905163243 53 266 18.0 27.0 0.00 0.00 0.00 74 878.2
20260905163043 53 268 17.0 24.0 0.00 0.00 0.00 74 878.1
20260905162843 53 269 19.0 25.0 0.00 0.00 0.00 74 878.1
20260905162643 53 264 21.0 34.0 0.00 0.00 0.00 74 878.1
20260905162441 53 263 17.0 29.0 0.00 0.00 0.00 74 878.1
20260905162241 53 269 17.0 24.0 0.00 0.00 0.00 74 878.1
20260905162042 53 267 18.0 24.0 0.00 0.00 0.00 74 878.1
20260905161841 53 261 17.0 23.0 0.00 0.00 0.00 74 878.0
20260905161641 53 263 20.0 28.0 0.00 0.00 0.00 74 878.0
20260905161441 53 259 22.0 30.0 0.00 0.00 0.00 74 877.9
20260905161241 53 257 21.0 30.0 0.00 0.00 0.00 74 877.9
20260905161039 53 253 19.0 30.0 0.00 0.00 0.00 74 878.0
20260905160839 53 261 16.0 25.0 0.00 0.00 0.00 74 878.0
20260905160639 54 261 14.0 23.0 0.00 0.00 0.00 74 878.1
20260905160437 54 258 11.0 18.0 0.00 0.00 0.00 74 878.1
20260905160237 54 248 16.0 26.0 0.00 0.00 0.00 74 878.0
20260905160037 54 248 19.0 31.0 0.00 0.00 0.00 74 878.0
20260905155837 54 251 16.0 31.0 0.00 0.00 0.00 74 878.0
20260905155638 54 257 14.0 25.0 0.00 0.00 0.00 74 878.0
20260905155436 54 256 14.0 23.0 0.00 0.00 0.00 74 877.9
20260905155236 54 260 17.0 27.0 0.00 0.00 0.00 74 877.9
20260905155036 54 264 17.0 24.0 0.00 0.00 0.00 74 877.9
20260905154836 54 258 17.0 24.0 0.00 0.00 0.00 74 877.9
20260905154636 54 260 19.0 28.0 0.00 0.00 0.00 74 877.9
20260905154425 54 256 19.0 27.0 0.00 0.00 0.00 74 877.9
20260905154225 54 261 17.0 28.0 0.00 0.00 0.00 75 877.8
20260905154025 54 261 18.0 30.0 0.00 0.00 0.00 75 877.9
20260905153825 53 262 17.0 23.0 0.00 0.00 0.00 75 877.8
20260905153625 53 265 18.0 30.0 0.00 0.00 0.00 75 877.9
20260905153425 53 267 17.0 30.0 0.00 0.00 0.00 76 877.9
20260905153225 53 261 16.0 24.0 0.00 0.00 0.00 76 877.9
20260905153025 53 256 19.0 26.0 0.00 0.00 0.00 76 877.9
20260905152825 53 258 18.0 26.0 0.00 0.00 0.00 76 877.8
20260905152625 53 266 16.0 24.0 0.00 0.00 0.00 76 877.8
20260905152423 54 262 18.0 26.0 0.00 0.00 0.00 75 877.8
20260905152223 54 262 15.0 24.0 0.00 0.00 0.00 76 877.8
20260905152023 54 255 15.0 22.0 0.00 0.00 0.00 75 877.7
20260905151823 0 263 17.0 27.0 0.00 0.00 0.00
20260905151623 54 257 16.0 20.0 0.00 0.00 0.00 76 877.8
20260905151423 54 250 17.0 26.0 0.00 0.00 0.00 76 877.7
20260905151222 54 256 18.0 24.0 0.00 0.00 0.00 75 877.8
20260905151022 54 265 14.0 23.0 0.00 0.00 0.00 76 877.8
20260905150822 54 268 13.0 19.0 0.00 0.00 0.00 76 877.8
20260905150622 54 264 16.0 20.0 0.00 0.00 0.00 76 877.8
20260905150420 54 262 16.0 25.0 0.00 0.00 0.00 76 877.8
20260905150218 54 250 16.0 27.0 0.00 0.00 0.00 76 877.8
20260905150018 54 256 16.0 30.0 0.00 0.00 0.00 76 877.7
20260905145818 54 256 18.0 30.0 0.00 0.00 0.00 77 877.7
20260905145618 54 261 15.0 26.0 0.00 0.00 0.00 77 877.7
20260905145418 53 263 15.0 26.0 0.00 0.00 0.00 77 877.8
20260905145218 53 262 16.0 23.0 0.00 0.00 0.00 77 877.7
20260905145018 53 257 16.0 22.0 0.00 0.00 0.00 77 877.7
20260905144818 53 252 14.0 22.0 0.00 0.00 0.00 77 877.8
20260905144618 53 249 17.0 26.0 0.00 0.00 0.00 77 877.7
20260905144416 53 253 20.0 26.0 0.00 0.00 0.00 77 877.6
20260905144216 53 265 16.0 25.0 0.00 0.00 0.00 77 877.7
20260905144015 53 255 16.0 28.0 0.00 0.00 0.00 77 877.7
20260905143815 53 245 17.0 28.0 0.00 0.00 0.00 78 877.7
20260905143615 53 246 13.0 19.0 0.00 0.00 0.00 78 877.8
20260905143415 53 241 17.0 25.0 0.00 0.00 0.00 78 877.8
20260905143215 53 247 14.0 25.0 0.00 0.00 0.00 78 877.8
20260905143015 52 255 13.0 25.0 0.00 0.00 0.00 78 877.8
20260905142815 52 257 14.0 25.0 0.00 0.00 0.00 78 877.8
20260905142615 53 250 18.0 23.0 0.00 0.00 0.00 78 877.8
20260905142413 53 255 17.0 23.0 0.00 0.00 0.00 78 877.8
20260905142213 53 262 15.0 22.0 0.00 0.00 0.00 78 877.8
20260905142014 53 263 14.0 20.0 0.00 0.00 0.00 78 877.9
20260905141813 53 260 13.0 20.0 0.00 0.00 0.00 78 877.9
20260905141613 53 266 12.0 15.0 0.00 0.00 0.00 78 877.9
20260905141413 53 254 14.0 27.0 0.00 0.00 0.00 78 877.9
20260905141214 53 246 16.0 27.0 0.00 0.00 0.00 78 877.9
20260905141013 53 254 15.0 20.0 0.00 0.00 0.00 79 878.0
20260905140813 53 253 13.0 19.0 0.00 0.00 0.00 79 878.0
20260905140613 53 262 14.0 20.0 0.00 0.00 0.00 79 878.0
20260905140411 52 258 11.0 17.0 0.00 0.00 0.00 79 878.0
20260905140211 52 256 13.0 20.0 0.00 0.00 0.00 79 878.0
20260905140011 52 252 12.0 17.0 0.00 0.00 0.00 79 878.0
20260905135811 52 243 14.0 20.0 0.00 0.00 0.00 79 878.0
20260905135611 52 247 15.0 19.0 0.00 0.00 0.00 79 878.0
20260905135409 53 241 14.0 20.0 0.00 0.00 0.00 79 878.0
20260905135209 53 245 15.0 22.0 0.00 0.00 0.00 79 878.0
20260905135009 53 253 12.0 22.0 0.00 0.00 0.00 79 878.0
20260905134809 53 261 16.0 27.0 0.00 0.00 0.00 79 877.9
20260905134407 53 248 13.0 18.0 0.00 0.00 0.00 79 877.9
20260905134206 53 247 15.0 21.0 0.00 0.00 0.00 79 877.9
20260905134006 52 256 15.0 21.0 0.00 0.00 0.00 80 877.9
20260905133806 52 259 15.0 24.0 0.00 0.00 0.00 80 877.9
20260905133606 52 252 18.0 24.0 0.00 0.00 0.00 80 877.9
20260905133407 52 253 16.0 24.0 0.00 0.00 0.00 80 877.9
20260905133207 52 251 14.0 18.0 0.00 0.00 0.00 81 877.9
20260905133007 52 249 14.0 18.0 0.00 0.00 0.00 80 878.0
20260905132807 52 249 14.0 19.0 0.00 0.00 0.00 80 878.0
20260905132606 52 252 15.0 21.0 0.00 0.00 0.00 80 877.9
20260905132404 52 248 17.0 24.0 0.00 0.00 0.00 80 877.9
20260905132204 52 255 17.0 25.0 0.00 0.00 0.00 80 877.9
20260905132005 52 258 15.0 25.0 0.00 0.00 0.00 80 877.9
20260905131804 52 256 14.0 21.0 0.00 0.00 0.00 80 878.0
20260905131605 53 250 16.0 25.0 0.00 0.00 0.00 80 877.9
20260905131355 53 252 16.0 23.0 0.00 0.00 0.00 80 877.9
20260905131155 53 246 16.0 23.0 0.00 0.00 0.00 79 877.8
20260905130955 53 244 15.0 23.0 0.00 0.00 0.00 80 877.9
20260905130755 53 250 14.0 20.0 0.00 0.00 0.00 80 877.9
20260905130555 53 241 13.0 20.0 0.00 0.00 0.00 80 877.9
20260905130353 53 242 13.0 20.0 0.00 0.00 0.00 80 877.9
20260905130153 53 253 13.0 17.0 0.00 0.00 0.00 80 877.9
20260905125953 52 253 12.0 17.0 0.00 0.00 0.00 81 877.9
20260905125753 52 253 13.0 20.0 0.00 0.00 0.00 81 877.9
20260905125553 52 259 10.0 14.0 0.00 0.00 0.00 81 877.9
20260905125353 52 251 13.0 20.0 0.00 0.00 0.00 80 878.0
20260905125153 53 244 16.0 20.0 0.00 0.00 0.00 80 878.0
20260905124953 53 258 13.0 22.0 0.00 0.00 0.00 80 878.0
20260905124753 53 259 12.0 22.0 0.00 0.00 0.00 80 878.0
20260905124551 53 265 12.0 24.0 0.00 0.00 0.00 81 878.0
20260905124349 53 248 13.0 24.0 0.00 0.00 0.00 81 878.0
20260905124149 52 248 11.0 17.0 0.00 0.00 0.00 81 877.9
20260905123949 52 252 12.0 19.0 0.00 0.00 0.00 81 877.9
20260905123749 52 249 14.0 19.0 0.00 0.00 0.00 81 877.9
20260905123549 52 241 14.0 19.0 0.00 0.00 0.00 81 878.0
20260905123349 52 253 14.0 21.0 0.00 0.00 0.00 81 878.0
20260905123149 52 264 14.0 21.0 0.00 0.00 0.00 81 877.9
20260905122949 52 250 14.0 21.0 0.00 0.00 0.00 81 877.9
20260905122749 52 255 12.0 18.0 0.00 0.00 0.00 81 877.9
20260905122549 52 253 14.0 23.0 0.00 0.00 0.00 81 878.0
20260905122347 52 253 12.0 23.0 0.00 0.00 0.00 82 878.0
20260905122147 52 264 10.0 16.0 0.00 0.00 0.00 82 878.0
20260905121947 51 263 11.0 17.0 0.00 0.00 0.00 82 878.0
20260905121747 51 255 10.0 14.0 0.00 0.00 0.00 82 878.0
20260905121547 51 262 13.0 19.0 0.00 0.00 0.00 82 878.0
20260905121345 51 267 12.0 18.0 0.00 0.00 0.00 82 878.0
20260905121145 51 263 12.0 19.0 0.00 0.00 0.00 82 878.0
20260905120945 52 259 12.0 18.0 0.00 0.00 0.00 82 878.0
20260905120745 52 258 11.0 18.0 0.00 0.00 0.00 82 878.0
20260905120545 52 245 13.0 17.0 0.00 0.00 0.00 82 878.0
20260905120343 52 252 14.0 19.0 0.00 0.00 0.00 82 878.0
20260905120143 52 265 9.0 19.0 0.00 0.00 0.00 82 878.0
20260905115943 52 258 8.0 12.0 0.00 0.00 0.00 82 878.0
20260905115743 52 243 10.0 19.0 0.00 0.00 0.00 82 878.0
20260905115543 52 273 9.0 19.0 0.00 0.00 0.00 82 878.0
20260905115343 52 266 10.0 20.0 0.00 0.00 0.00 82 878.0
20260905115218 52 257 9.0 20.0 0.00 0.00 0.00 82 878.1
20260905115144 52 257 9.0 20.0 0.00 0.00 0.00 82 878.1
20260905114944 52 259 7.0 13.0 0.00 0.00 0.00 82 878.0
20260905114744 52 255 12.0 19.0 0.00 0.00 0.00 82 877.9
20260905114544 52 250 11.0 19.0 0.00 0.00 0.00 82 877.9
20260905114342 52 253 10.0 14.0 0.00 0.00 0.00 82 878.0
20260905114142 52 248 10.0 14.0 0.00 0.00 0.00 82 878.0
20260905113942 52 251 12.0 20.0 0.00 0.00 0.00 82 878.0
20260905113740 52 253 11.0 17.0 0.00 0.00 0.00 83 877.9
20260905113540 51 253 11.0 18.0 0.00 0.00 0.00 83 878.0
20260905113340 51 253 10.0 20.0 0.00 0.00 0.00 83 878.0
20260905113140 51 256 7.0 13.0 0.00 0.00 0.00 83 878.0
20260905112940 51 256 11.0 19.0 0.00 0.00 0.00 83 877.9
20260905112740 51 258 9.0 14.0 0.00 0.00 0.00 83 877.9
20260905112540 51 248 10.0 16.0 0.00 0.00 0.00 84 878.0
20260905112338 51 249 9.0 15.0 0.00 0.00 0.00 84 878.0
20260905112138 51 260 10.0 16.0 0.00 0.00 0.00 84 878.0
20260905111938 51 260 10.0 16.0 0.00 0.00 0.00 84 878.0
20260905111738 51 250 9.0 16.0 0.00 0.00 0.00 84 878.0
20260905111538 51 248 9.0 21.0 0.00 0.00 0.00 84 878.0
20260905111338 50 252 9.0 21.0 0.00 0.00 0.00 84 878.0
20260905111230 51 259 10.0 15.0 0.00 0.00 0.00 84 878.0
20260905111138 51 259 10.0 15.0 0.00 0.00 0.00 84 878.0
20260905110938 51 248 11.0 21.0 0.00 0.00 0.00 84 878.0
20260905110738 51 244 11.0 21.0 0.00 0.00 0.00 84 877.9
20260905110538 51 240 10.0 14.0 0.00 0.00 0.00 84 878.0
20260905110336 51 260 11.0 17.0 0.00 0.00 0.00 84 878.0
20260905110136 51 260 10.0 16.0 0.00 0.00 0.00 84 878.0
20260905105936 51 263 11.0 18.0 0.00 0.00 0.00 85 877.9
20260905105536 50 247 11.0 17.0 0.00 0.00 0.00 85 877.9
20260905105336 50 246 11.0 17.0 0.00 0.00 0.00 85 877.9
20260905105136 50 257 6.0 12.0 0.00 0.00 0.00 85 877.9
20260905104936 49 270 6.0 16.0 0.00 0.00 0.00 85 877.9
20260905104824 49 270 10.0 18.0 0.00 0.00 0.00 85 877.8
20260905104737 49 270 10.0 18.0 0.00 0.00 0.00 85 877.8
20260905104536 50 266 14.0 25.0 0.00 0.00 0.00 85 877.8
20260905104324 50 253 15.0 23.0 0.00 0.00 0.00 85 877.8
20260905104124 50 254 12.0 19.0 0.00 0.00 0.00 85 877.8
20260905103924 50 267 11.0 17.0 0.00 0.00 0.00 85 877.8
20260905103724 50 276 11.0 19.0 0.00 0.00 0.00 86 877.8
20260905103524 50 270 12.0 18.0 0.00 0.00 0.00 86 877.8
20260905103324 50 263 10.0 18.0 0.00 0.00 0.00 86 877.8
20260905103124 49 257 11.0 21.0 0.00 0.00 0.00 86 877.9
20260905102922 49 270 10.0 15.0 0.00 0.00 0.00 86 877.9
20260905102845 49 275 8.0 14.0 0.00 0.00 0.00 86 877.9
20260905102722 49 275 8.0 14.0 0.00 0.00 0.00 86 877.9
20260905102522 49 264 7.0 14.0 0.00 0.00 0.00 86 877.9
20260905102321 49 253 9.0 14.0 0.00 0.00 0.00 86 877.8
20260905102121 49 260 10.0 16.0 0.00 0.00 0.00 86 877.8
20260905101921 49 271 10.0 13.0 0.00 0.00 0.00 86 877.8
20260905101721 49 267 10.0 15.0 0.00 0.00 0.00 86 877.8
20260905101521 49 252 9.0 13.0 0.00 0.00 0.00 86 877.8
20260905101320 50 262 8.0 14.0 0.00 0.00 0.00 87 877.8
20260905101120 49 249 8.0 14.0 0.00 0.00 0.00 87 877.7
20260905100920 49 241 9.0 14.0 0.00 0.00 0.00 86 877.7
20260905100720 49 254 9.0 14.0 0.00 0.00 0.00 87 877.7
20260905100520 49 260 12.0 18.0 0.00 0.00 0.00 87 877.7
20260905100318 49 258 12.0 21.0 0.00 0.00 0.00 87 877.7
20260905100148 48 240 12.0 20.0 0.00 0.00 0.00 87 877.6
20260905100118 48 248 12.0 20.0 0.00 0.00 0.00 87 877.6
20260905095918 48 240 12.0 20.0 0.00 0.00 0.00 87 877.6
20260905095718 48 244 12.0 20.0 0.00 0.00 0.00 87 877.6
20260905095518 48 258 12.0 18.0 0.00 0.00 0.00 87 877.6
20260905095318 48 264 10.0 14.0 0.00 0.00 0.00 87 877.6
20260905095118 48 254 10.0 17.0 0.00 0.00 0.00 87 877.5
20260905094918 48 241 10.0 23.0 0.00 0.00 0.00 87 877.6
20260905094718 48 239 11.0 24.0 0.00 0.00 0.00 87 877.6
20260905094518 48 248 11.0 24.0 0.00 0.00 0.00 87 877.6
20260905094316 48 267 10.0 17.0 0.00 0.00 0.00 87 877.6
20260905094116 48 262 11.0 17.0 0.00 0.00 0.00 87 877.6
20260905093916 48 248 9.0 16.0 0.00 0.00 0.00 87 877.6
20260905093716 48 238 10.0 18.0 0.00 0.00 0.00 88 877.6
20260905093516 47 249 10.0 18.0 0.00 0.00 0.00 88 877.6
20260905093316 47 243 9.0 14.0 0.00 0.00 0.00 88 877.6
20260905093115 47 244 9.0 17.0 0.00 0.00 0.00 88 877.6
20260905092915 47 250 8.0 13.0 0.00 0.00 0.00 88 877.6
20260905092715 47 255 8.0 15.0 0.00 0.00 0.00 88 877.6
20260905092515 47 263 10.0 15.0 0.00 0.00 0.00 88 877.5
20260905092313 47 255 10.0 16.0 0.00 0.00 0.00 88 877.5
20260905092110 47 252 11.0 19.0 0.00 0.00 0.00 88 877.5
20260905091910 47 251 14.0 22.0 0.00 0.00 0.00 88 877.5
20260905091710 47 255 12.0 20.0 0.00 0.00 0.00 88 877.5
20260905091510 47 250 13.0 20.0 0.00 0.00 0.00 88 877.5
20260905091311 47 253 13.0 22.0 0.00 0.00 0.00 88 877.5
20260905091111 47 251 11.0 17.0 0.00 0.00 0.00 88 877.5
20260905090911 47 251 11.0 21.0 0.00 0.00 0.00 88 877.4
20260905090711 47 258 14.0 20.0 0.00 0.00 0.00 88 877.4
20260905090511 46 256 13.0 19.0 0.00 0.00 0.00 88 877.4
20260905090309 46 254 14.0 20.0 0.00 0.00 0.00 88 877.4
20260905090109 46 250 12.0 20.0 0.00 0.00 0.00 88 877.4
20260905085908 46 249 14.0 21.0 0.00 0.00 0.00 88 877.5
20260905085711 46 254 13.0 21.0 0.00 0.00 0.00 88 877.6
20260905085508 46 257 12.0 20.0 0.00 0.00 0.00 87 877.7
20260905085308 46 243 12.0 20.0 0.00 0.00 0.00 88 877.6
20260905085108 46 247 14.0 21.0 0.00 0.00 0.00 88 877.5
20260905084908 46 246 13.0 17.0 0.00 0.00 0.00 88 877.5
20260905084708 46 247 12.0 17.0 0.00 0.00 0.00 88 877.4
20260905084508 46 255 11.0 15.0 0.00 0.00 0.00 88 877.4
20260905084306 46 245 13.0 24.0 0.00 0.00 0.00 88 877.3
20260905084128 46 256 12.0 19.0 0.00 0.00 0.00 88 877.4
20260905084106 46 244 11.0 18.0 0.00 0.00 0.00 88 877.3
20260905083906 46 256 12.0 19.0 0.00 0.00 0.00 88 877.4
20260905083706 46 255 14.0 20.0 0.00 0.00 0.00 87 877.3
20260905083647 46 251 13.0 20.0 0.00 0.00 0.00 87 877.2
20260905083506 46 251 13.0 20.0 0.00 0.00 0.00 87 877.2
20260905083306 46 249 11.0 16.0 0.00 0.00 0.00 87 877.2
20260905083106 46 253 13.0 16.0 0.00 0.00 0.00 88 877.2
20260905082906 46 248 14.0 21.0 0.00 0.00 0.00 88 877.2
20260905082706 46 249 16.0 22.0 0.00 0.00 0.00 87 877.3
20260905082307 46 246 14.0 19.0 0.00 0.00 0.00 88 877.1
20260905082104 46 250 15.0 27.0 0.00 0.00 0.00 87 877.2
20260905081904 45 258 16.0 27.0 0.00 0.00 0.00 87 877.2
20260905081704 45 246 17.0 21.0 0.00 0.00 0.00 87 877.1
20260905081504 45 247 16.0 22.0 0.00 0.00 0.00 87 876.9
20260905081253 45 246 15.0 22.0 0.00 0.00 0.00 87 876.8
20260905081053 45 236 15.0 22.0 0.00 0.00 0.00 87 876.8
20260905080853 45 238 14.0 19.0 0.00 0.00 0.00 87 877.0
20260905080653 45 241 16.0 21.0 0.00 0.00 0.00 87 877.0
20260905080452 45 244 16.0 23.0 0.00 0.00 0.00 87 877.1
20260905080250 45 246 17.0 25.0 0.00 0.00 0.00 87 877.1
20260905080050 45 246 19.0 25.0 0.00 0.00 0.00 87 877.1
20260905075850 45 247 16.0 24.0 0.00 0.00 0.00 87 877.0
20260905075650 45 242 16.0 24.0 0.00 0.00 0.00 87 877.1
20260905075451 45 248 18.0 26.0 0.00 0.00 0.00 87 877.1
20260905075250 45 249 18.0 26.0 0.00 0.00 0.00 87 877.2
20260905075050 45 240 18.0 24.0 0.00 0.00 0.00 87 877.1
20260905074850 45 240 17.0 22.0 0.00 0.00 0.00 87 877.0
20260905074650 46 239 19.0 24.0 0.00 0.00 0.00 87 876.9
20260905074450 46 233 20.0 28.0 0.00 0.00 0.00 87 876.9
20260905074248 45 237 18.0 27.0 0.00 0.00 0.00 87 876.9
20260905074049 45 241 18.0 23.0 0.00 0.00 0.00 87 876.9
20260905073849 45 239 17.0 24.0 0.00 0.00 0.00 87 876.9
20260905073649 45 240 19.0 26.0 0.00 0.00 0.00 87 876.8
20260905073449 45 239 17.0 22.0 0.00 0.00 0.00 87 876.8
20260905073249 45 241 19.0 26.0 0.00 0.00 0.00 87 876.7
20260905073049 45 242 21.0 26.0 0.00 0.00 0.00 87 876.8
20260905072849 45 247 20.0 25.0 0.00 0.00 0.00 87 876.8
20260905072649 45 253 19.0 26.0 0.00 0.00 0.00 87 876.8
20260905072449 45 251 18.0 24.0 0.00 0.00 0.00 87 876.8
20260905072247 45 253 18.0 24.0 0.00 0.00 0.00 87 876.9
20260905072047 45 254 17.0 24.0 0.00 0.00 0.00 87 876.8
20260905071847 45 250 17.0 24.0 0.00 0.00 0.00 87 876.8
20260905071647 45 254 17.0 24.0 0.00 0.00 0.00 87 876.9
20260905071447 45 258 15.0 24.0 0.00 0.00 0.00 87 877.0
20260905071247 45 262 17.0 28.0 0.00 0.00 0.00 87 877.0
20260905071047 45 265 16.0 28.0 0.00 0.00 0.00 87 877.1
20260905070847 45 258 16.0 25.0 0.00 0.00 0.00 87 877.0
20260905070648 45 258 16.0 25.0 0.00 0.00 0.00 87 876.9
20260905070445 45 265 16.0 23.0 0.00 0.00 0.00 87 876.8
20260905070242 45 266 16.0 20.0 0.00 0.00 0.00 87 876.7
20260905070042 45 269 14.0 21.0 0.00 0.00 0.00 87 876.6
20260905065842 45 260 16.0 24.0 0.00 0.00 0.00 87 876.5
20260905065642 45 255 15.0 24.0 0.00 0.00 0.00 87 876.5
20260905065442 45 260 13.0 22.0 0.00 0.00 0.00 87 876.5
20260905065242 46 255 14.0 22.0 0.00 0.00 0.00 87 876.5
20260905065043 46 259 14.0 24.0 0.00 0.00 0.00 87 876.6
20260905064842 46 251 15.0 21.0 0.00 0.00 0.00 86 876.5
20260905064642 46 247 15.0 23.0 0.00 0.00 0.00 87 876.5
20260905064442 46 249 16.0 23.0 0.00 0.00 0.00 87 876.6
20260905064240 46 248 14.0 20.0 0.00 0.00 0.00 87 876.6
20260905064040 46 255 13.0 24.0 0.00 0.00 0.00 86 876.6
20260905063840 46 251 14.0 21.0 0.00 0.00 0.00 86 876.5
20260905063640 46 240 14.0 18.0 0.00 0.00 0.00 86 876.4
20260905063440 46 244 15.0 25.0 0.00 0.00 0.00 86 876.3
20260905063238 46 241 13.0 23.0 0.00 0.00 0.00 86 876.3
20260905063038 46 240 12.0 18.0 0.00 0.00 0.00 86 876.3
20260905062838 46 242 12.0 17.0 0.00 0.00 0.00 86 876.2
20260905062638 46 241 14.0 20.0 0.00 0.00 0.00 86 876.2
20260905062438 46 241 15.0 20.0 0.00 0.00 0.00 86 876.3
20260905062236 46 240 17.0 24.0 0.00 0.00 0.00 86 876.5
20260905062036 46 242 16.0 24.0 0.00 0.00 0.00 86 876.5
20260905061836 47 247 16.0 23.0 0.00 0.00 0.00 86 876.6
20260905061636 47 250 16.0 25.0 0.00 0.00 0.00 86 876.6
20260905061436 47 250 16.0 28.0 0.00 0.00 0.00 86 876.6
20260905061236 47 252 16.0 28.0 0.00 0.00 0.00 86 876.6
20260905061036 47 246 15.0 22.0 0.00 0.00 0.00 86 876.5
20260905060836 47 257 12.0 20.0 0.00 0.00 0.00 86 876.5
20260905060636 47 258 14.0 20.0 0.00 0.00 0.00 86 876.5
20260905060436 47 255 14.0 23.0 0.00 0.00 0.00 86 876.5
20260905060234 47 253 16.0 23.0 0.00 0.00 0.00 86 876.5
20260905060034 47 255 16.0 25.0 0.00 0.00 0.00 85 876.6
20260905055834 47 254 15.0 22.0 0.00 0.00 0.00 85 876.7
20260905055632 48 263 16.0 22.0 0.00 0.00 0.00 85 876.8
20260905055432 48 270 16.0 25.0 0.00 0.00 0.00 85 876.7
20260905055232 48 270 16.0 24.0 0.00 0.00 0.00 85 876.7
20260905055032 48 274 17.0 24.0 0.00 0.00 0.00 85 876.6
20260905054832 48 266 19.0 24.0 0.00 0.00 0.00 85 876.6
20260905054632 48 261 18.0 24.0 0.00 0.00 0.00 85 876.5
20260905054432 48 263 17.0 23.0 0.00 0.00 0.00 85 876.4
20260905054221 48 261 16.0 23.0 0.00 0.00 0.00 85 876.3
20260905054021 48 261 15.0 22.0 0.00 0.00 0.00 85 876.3
20260905053821 48 267 13.0 20.0 0.00 0.00 0.00 85 876.3
20260905053621 48 271 14.0 21.0 0.00 0.00 0.00 85 876.3
20260905053421 48 267 14.0 19.0 0.00 0.00 0.00 85 876.3
20260905053221 48 256 15.0 22.0 0.00 0.00 0.00 84 876.5
20260905053021 48 260 15.0 23.0 0.00 0.00 0.00 84 876.5
20260905052821 48 268 16.0 26.0 0.00 0.00 0.00 84 876.3
20260905052621 48 271 15.0 21.0 0.00 0.00 0.00 84 876.3
20260905052421 48 270 15.0 24.0 0.00 0.00 0.00 84 876.3
20260905052219 48 265 15.0 20.0 0.00 0.00 0.00 84 876.3
20260905052019 48 271 15.0 21.0 0.00 0.00 0.00 84 876.3
20260905051820 48 269 15.0 19.0 0.00 0.00 0.00 84 876.2
20260905051618 48 265 16.0 24.0 0.00 0.00 0.00 84 876.2
20260905051418 48 263 16.0 20.0 0.00 0.00 0.00 84 876.0
20260905051218 48 260 18.0 23.0 0.00 0.00 0.00 84 876.0
20260905051019 48 254 18.0 24.0 0.00 0.00 0.00 84 876.0
20260905050819 48 251 20.0 24.0 0.00 0.00 0.00 83 875.8
20260905050619 48 259 19.0 24.0 0.00 0.00 0.00 83 875.7
20260905050419 48 262 18.0 24.0 0.00 0.00 0.00 83 875.7
20260905050217 48 265 17.0 22.0 0.00 0.00 0.00 83 875.7
20260905050017 49 267 16.0 19.0 0.00 0.00 0.00 83 875.8
20260905045817 49 272 16.0 22.0 0.00 0.00 0.00 83 875.9
20260905045617 49 273 17.0 26.0 0.00 0.00 0.00 83 876.0
20260905045417 49 263 20.0 30.0 0.00 0.00 0.00 83 876.1
20260905045217 49 260 22.0 30.0 0.00 0.00 0.00 83 876.1
20260905045018 49 263 19.0 27.0 0.00 0.00 0.00 83 876.0
20260905044815 49 268 17.0 23.0 0.00 0.00 0.00 82 875.9
20260905044615 49 269 18.0 23.0 0.00 0.00 0.00 82 875.9
20260905044415 49 261 19.0 27.0 0.00 0.00 0.00 82 875.9
20260905044213 49 257 19.0 25.0 0.00 0.00 0.00 82 875.8
20260905044013 49 264 17.0 26.0 0.00 0.00 0.00 82 875.8
20260905043813 49 270 19.0 26.0 0.00 0.00 0.00 82 875.7
20260905043613 49 269 18.0 25.0 0.00 0.00 0.00 83 875.7
20260905043413 49 267 18.0 23.0 0.00 0.00 0.00 83 875.7
20260905043212 49 263 18.0 25.0 0.00 0.00 0.00 83 875.8
20260905043012 49 259 17.0 23.0 0.00 0.00 0.00 83 875.9
20260905042812 49 260 18.0 24.0 0.00 0.00 0.00 83 875.9
20260905042612 49 260 15.0 24.0 0.00 0.00 0.00 82 875.9
20260905042412 49 261 17.0 23.0 0.00 0.00 0.00 83 875.8
20260905042211 48 259 20.0 27.0 0.00 0.00 0.00 83 875.8
20260905042010 48 263 19.0 28.0 0.00 0.00 0.00 83 875.8
20260905041810 48 263 17.0 28.0 0.00 0.00 0.00 83 875.8
20260905041610 48 262 17.0 23.0 0.00 0.00 0.00 83 875.7
20260905041410 48 260 18.0 23.0 0.00 0.00 0.00 83 875.6
20260905041210 48 259 18.0 24.0 0.00 0.00 0.00 82 875.5
20260905041010 48 256 20.0 24.0 0.00 0.00 0.00 82 875.4
20260905040811 49 257 19.0 23.0 0.00 0.00 0.00 82 875.5
20260905040611 49 257 15.0 23.0 0.00 0.00 0.00 82 875.6
20260905040411 49 264 15.0 21.0 0.00 0.00 0.00 82 875.7
20260905040209 49 261 20.0 25.0 0.00 0.00 0.00 82 875.7
20260905040009 50 268 18.0 25.0 0.00 0.00 0.00 81 875.8
20260905035809 50 269 16.0 23.0 0.00 0.00 0.00 81 875.8
20260905035609 50 262 16.0 21.0 0.00 0.00 0.00 81 875.7
20260905035409 50 260 16.0 20.0 0.00 0.00 0.00 81 875.6
20260905035209 50 260 15.0 19.0 0.00 0.00 0.00 81 875.5
20260905035009 50 259 14.0 19.0 0.00 0.00 0.00 81 875.5
20260905034809 50 259 16.0 20.0 0.00 0.00 0.00 81 875.5
20260905034609 50 253 16.0 22.0 0.00 0.00 0.00 81 875.4
20260905034409 50 252 16.0 22.0 0.00 0.00 0.00 81 875.4
20260905034207 50 251 16.0 23.0 0.00 0.00 0.00 81 875.4
20260905034005 50 257 17.0 24.0 0.00 0.00 0.00 82 875.4
20260905033805 50 260 16.0 21.0 0.00 0.00 0.00 82 875.4
20260905033605 50 262 16.0 22.0 0.00 0.00 0.00 82 875.3
20260905033405 50 260 17.0 22.0 0.00 0.00 0.00 82 875.3
20260905033205 50 260 16.0 21.0 0.00 0.00 0.00 82 875.3
20260905033005 50 261 17.0 21.0 0.00 0.00 0.00 82 875.3
20260905032805 50 265 17.0 21.0 0.00 0.00 0.00 82 875.2
20260905032605 50 260 16.0 20.0 0.00 0.00 0.00 82 875.2
20260905032405 50 256 17.0 21.0 0.00 0.00 0.00 82 875.2
20260905032203 50 257 17.0 21.0 0.00 0.00 0.00 82 875.2
20260905032003 50 257 17.0 21.0 0.00 0.00 0.00 82 875.2
20260905031804 50 257 16.0 20.0 0.00 0.00 0.00 82 875.3
20260905031603 50 254 16.0 21.0 0.00 0.00 0.00 82 875.3
20260905031403 50 252 18.0 23.0 0.00 0.00 0.00 82 875.3
20260905031154 50 255 17.0 23.0 0.00 0.00 0.00 82 875.5
20260905030959 50 259 18.0 24.0 0.00 0.00 0.00 82 875.6
20260905030954 50 259 18.0 25.0 0.00 0.00 0.00 82 875.6
20260905030753 50 254 20.0 25.0 0.00 0.00 0.00 82 875.6
20260905030553 50 259 18.0 24.0 0.00 0.00 0.00 82 875.6
20260905030353 50 259 17.0 22.0 0.00 0.00 0.00 82 875.5
20260905030151 50 260 18.0 24.0 0.00 0.00 0.00 82 875.5
20260905025951 50 263 16.0 22.0 0.00 0.00 0.00 81 875.6
20260905025751 50 265 16.0 19.0 0.00 0.00 0.00 82 875.6
20260905025551 50 262 16.0 21.0 0.00 0.00 0.00 81 875.6
20260905025352 50 261 18.0 22.0 0.00 0.00 0.00 81 875.5
20260905025151 50 257 20.0 27.0 0.00 0.00 0.00 81 875.5
20260905024951 50 260 16.0 21.0 0.00 0.00 0.00 81 875.5
20260905024751 50 264 15.0 25.0 0.00 0.00 0.00 81 875.5
20260905024550 50 268 18.0 25.0 0.00 0.00 0.00 81 875.4
20260905024350 50 260 17.0 24.0 0.00 0.00 0.00 81 875.4
20260905024148 50 259 15.0 20.0 0.00 0.00 0.00 81 875.4
20260905023948 50 261 17.0 21.0 0.00 0.00 0.00 81 875.5
20260905023748 50 265 15.0 18.0 0.00 0.00 0.00 81 875.6
20260905023548 50 265 16.0 20.0 0.00 0.00 0.00 81 875.5
20260905023348 50 262 20.0 27.0 0.00 0.00 0.00 81 875.5
20260905023146 50 259 19.0 27.0 0.00 0.00 0.00 81 875.5
20260905022946 50 263 20.0 30.0 0.00 0.00 0.00 81 875.5
20260905022746 50 253 23.0 30.0 0.00 0.00 0.00 81 875.6
20260905022546 50 261 18.0 30.0 0.00 0.00 0.00 81 875.6
20260905022346 50 265 17.0 22.0 0.00 0.00 0.00 81 875.6
20260905022144 50 261 18.0 24.0 0.00 0.00 0.00 81 875.6
20260905021945 50 262 18.0 24.0 0.00 0.00 0.00 81 875.7
20260905021745 50 265 18.0 25.0 0.00 0.00 0.00 81 875.7
20260905021545 50 267 18.0 27.0 0.00 0.00 0.00 81 875.7
20260905021345 50 271 21.0 27.0 0.00 0.00 0.00 81 875.7
20260905021145 50 271 20.0 27.0 0.00 0.00 0.00 81 875.7
20260905020945 50 262 18.0 27.0 0.00 0.00 0.00 81 875.7
20260905020745 50 262 18.0 27.0 0.00 0.00 0.00 81 875.6
20260905020545 50 259 20.0 27.0 0.00 0.00 0.00 81 875.6
20260905020344 50 262 20.0 26.0 0.00 0.00 0.00 82 875.6
20260905020143 50 263 19.0 26.0 0.00 0.00 0.00 81 875.5
20260905015943 50 265 19.0 23.0 0.00 0.00 0.00 81 875.5
20260905015743 50 270 18.0 22.0 0.00 0.00 0.00 81 875.6
20260905015543 50 269 18.0 23.0 0.00 0.00 0.00 81 875.6
20260905015343 50 265 19.0 23.0 0.00 0.00 0.00 81 875.6
20260905015142 50 266 19.0 24.0 0.00 0.00 0.00 81 875.6
20260905014942 50 266 20.0 29.0 0.00 0.00 0.00 81 875.5
20260905014743 50 269 18.0 29.0 0.00 0.00 0.00 81 875.6
20260905014542 50 270 16.0 21.0 0.00 0.00 0.00 81 875.6
20260905014343 50 266 17.0 26.0 0.00 0.00 0.00 81 875.7
20260905014141 50 258 18.0 26.0 0.00 0.00 0.00 81 875.7
20260905013941 50 259 16.0 21.0 0.00 0.00 0.00 81 875.7
20260905013741 50 264 17.0 26.0 0.00 0.00 0.00 81 875.7
20260905013541 50 260 16.0 21.0 0.00 0.00 0.00 81 875.6
20260905013341 50 270 17.0 23.0 0.00 0.00 0.00 81 875.6
20260905013141 50 275 20.0 23.0 0.00 0.00 0.00 81 875.6
20260905012941 50 272 17.0 23.0 0.00 0.00 0.00 81 875.6
20260905012741 50 271 17.0 25.0 0.00 0.00 0.00 81 875.6
20260905012541 50 272 19.0 28.0 0.00 0.00 0.00 81 875.5
20260905012339 50 278 21.0 30.0 0.00 0.00 0.00 81 875.5
20260905012137 50 278 20.0 30.0 0.00 0.00 0.00 81 875.5
20260905011937 50 274 16.0 25.0 0.00 0.00 0.00 82 875.5
20260905011738 50 275 15.0 22.0 0.00 0.00 0.00 81 875.5
20260905011537 50 278 17.0 22.0 0.00 0.00 0.00 81 875.5
20260905011337 50 280 19.0 25.0 0.00 0.00 0.00 81 875.6
20260905011137 50 275 17.0 24.0 0.00 0.00 0.00 81 875.7
20260905010938 50 273 17.0 22.0 0.00 0.00 0.00 81 875.7
20260905010737 50 278 14.0 22.0 0.00 0.00 0.00 81 875.6
20260905010537 50 275 15.0 21.0 0.00 0.00 0.00 81 875.6
20260905010337 50 276 15.0 21.0 0.00 0.00 0.00 81 875.6
20260905010135 50 273 13.0 20.0 0.00 0.00 0.00 81 875.6
20260905005935 50 272 16.0 22.0 0.00 0.00 0.00 81 875.5
20260905005736 50 273 15.0 20.0 0.00 0.00 0.00 81 875.5
20260905005534 50 276 14.0 19.0 0.00 0.00 0.00 81 817.8
20260905005334 50 276 14.0 19.0 0.00 0.00 0.00 81 760.1
20260905005125 50 281 17.0 23.0 0.00 0.00 0.00 81 875.3
20260905004923 50 283 19.0 25.0 0.00 0.00 0.00 81 875.3
20260905004723 51 284 17.0 23.0 0.00 0.00 0.00 81 875.3
20260905004523 51 274 16.0 22.0 0.00 0.00 0.00 81 875.3
20260905004323 51 278 17.0 22.0 0.00 0.00 0.00 81 875.3
20260905004123 51 280 18.0 23.0 0.00 0.00 0.00 81 875.2
20260905003924 51 278 19.0 24.0 0.00 0.00 0.00 81 875.2
20260905003723 51 277 19.0 24.0 0.00 0.00 0.00 81 875.2
20260905003523 51 274 16.0 24.0 0.00 0.00 0.00 81 875.2
20260905003323 52 280 16.0 22.0 0.00 0.00 0.00 81 875.2
20260905003121 52 286 15.0 20.0 0.00 0.00 0.00 81 875.2
20260905002921 52 272 13.0 18.0 0.00 0.00 0.00 81 875.3
20260905002721 52 269 12.0 16.0 0.00 0.00 0.00 81 875.2
20260905002521 52 270 11.0 15.0 0.00 0.00 0.00 81 875.1
20260905002321 52 270 10.0 13.0 0.00 0.00 0.00 81 875.0
20260905002121 52 259 11.0 15.0 0.00 0.00 0.00 81 875.1
20260905001922 52 259 11.0 13.0 0.00 0.00 0.00 81 875.1
20260905001721 52 270 10.0 14.0 0.00 0.00 0.00 80 875.1
20260905001522 52 272 12.0 16.0 0.00 0.00 0.00 80 875.0
20260905001321 52 268 11.0 16.0 0.00 0.00 0.00 80 874.9
20260905001119 53 268 9.0 13.0 0.00 0.00 0.00 80 875.0
20260905000919 53 265 10.0 15.0 0.00 0.00 0.00 80 875.0
20260905000719 53 255 12.0 17.0 0.00 0.00 0.00 80 875.0
20260905000519 53 257 13.0 17.0 0.00 0.00 0.00 80 875.0
20260905000319 53 267 12.0 16.0 0.00 0.00 0.00 79 874.9
20260905000119 53 265 11.0 15.0 0.00 0.00 0.00 79 874.8
20260904235919 53 260 12.0 15.0 0.00 0.00 0.00 79 874.8
20260904235719 53 257 14.0 18.0 0.00 0.00 0.00 79 874.8
20260904235519 53 259 13.0 18.0 0.00 0.00 0.00 79 874.8
20260904235319 54 259 11.0 17.0 0.00 0.00 0.00 79 874.7
20260904235223 54 261 12.0 16.0 0.00 0.00 0.00 79 874.7
20260904235117 54 261 12.0 16.0 0.00 0.00 0.00 79 874.7
20260904234917 54 260 12.0 15.0 0.00 0.00 0.00 78 874.7
20260904234717 54 254 12.0 16.0 0.00 0.00 0.00 78 874.7
20260904234517 54 242 12.0 16.0 0.00 0.00 0.00 78 874.6
20260904234317 54 244 12.0 15.0 0.00 0.00 0.00 78 874.6
20260904234115 54 256 11.0 16.0 0.00 0.00 0.00 78 874.6
20260904233915 55 257 13.0 19.0 0.00 0.00 0.00 78 874.6
20260904233715 55 256 12.0 17.0 0.00 0.00 0.00 78 874.6
20260904233515 55 257 13.0 17.0 0.00 0.00 0.00 77 874.6
20260904233315 55 256 14.0 21.0 0.00 0.00 0.00 77 874.6
20260904233113 55 257 12.0 21.0 0.00 0.00 0.00 77 874.6
20260904232913 56 252 14.0 21.0 0.00 0.00 0.00 77 874.6
20260904232713 56 261 15.0 20.0 0.00 0.00 0.00 77 874.6
20260904232513 56 265 15.0 19.0 0.00 0.00 0.00 76 874.5
20260904232313 56 268 14.0 20.0 0.00 0.00 0.00 76 874.5
20260904232113 57 262 14.0 19.0 0.00 0.00 0.00 75 874.5
20260904231913 57 259 13.0 19.0 0.00 0.00 0.00 75 874.5
20260904231713 58 266 11.0 16.0 0.00 0.00 0.00 75 874.5
20260904231513 58 270 11.0 16.0 0.00 0.00 0.00 75 874.5
20260904231111 59 269 13.0 20.0 0.00 0.00 0.00 74 874.4
20260904230911 59 263 16.0 24.0 0.00 0.00 0.00 74 874.4
20260904230711 60 270 12.0 24.0 0.00 0.00 0.00 73 874.5
20260904230510 60 279 11.0 17.0 0.00 0.00 0.00 73 874.4
20260904230310 61 263 18.0 31.0 0.00 0.00 0.00 72 874.3
20260904230110 62 263 18.0 31.0 0.00 0.00 0.00 72 874.3
20260904225910 63 269 15.0 25.0 0.00 0.00 0.00 72 874.4
20260904225710 63 267 12.0 24.0 0.00 0.00 0.00 71 874.2
20260904225510 63 249 23.0 40.0 0.00 0.00 0.00 71 873.9
20260904225310 63 240 26.0 40.0 0.00 0.00 0.00 71 873.6
20260904225108 63 243 26.0 40.0 0.00 0.00 0.00 71 873.6
20260904224908 63 236 26.0 40.0 0.00 0.00 0.00 72 873.5
20260904224708 63 232 25.0 35.0 0.00 0.00 0.00 72 873.6
20260904224508 63 233 25.0 35.0 0.00 0.00 0.00 72 873.6
20260904224309 63 225 25.0 33.0 0.00 0.00 0.00 72 873.6
20260904224109 63 228 24.0 33.0 0.00 0.00 0.00 72 873.6
20260904223909 63 234 23.0 29.0 0.00 0.00 0.00 72 873.6
20260904223709 62 234 24.0 34.0 0.00 0.00 0.00 72 873.6
20260904223509 62 231 26.0 34.0 0.00 0.00 0.00 72 873.7
20260904223307 62 234 22.0 36.0 0.00 0.00 0.00 72 873.7
20260904223105 62 235 21.0 36.0 0.00 0.00 0.00 72 873.8
20260904222904 62 228 20.0 30.0 0.00 0.00 0.00 72 873.8
20260904222705 62 220 20.0 31.0 0.00 0.00 0.00 72 873.8
20260904222504 62 217 21.0 30.0 0.00 0.00 0.00 72 873.8
20260904222306 62 223 20.0 30.0 0.00 0.00 0.00 72 873.8
20260904222055 62 223 18.0 27.0 0.00 0.00 0.00 72 873.8
20260904221855 63 220 18.0 27.0 0.00 0.00 0.00 72 873.8
20260904221655 63 220 18.0 24.0 0.00 0.00 0.00 72 873.8
20260904221455 63 213 20.0 31.0 0.00 0.00 0.00 72 873.8
20260904221255 63 217 19.0 24.0 0.00 0.00 0.00 72 873.8
20260904221053 63 215 20.0 26.0 0.00 0.00 0.00 72 873.8
20260904220853 63 215 21.0 36.0 0.00 0.00 0.00 72 873.8
20260904220653 62 212 20.0 36.0 0.00 0.00 0.00 72 873.9
20260904220453 62 211 22.0 31.0 0.00 0.00 0.00 72 874.0
20260904220253 62 217 20.0 31.0 0.00 0.00 0.00 72 873.9
20260904220051 62 217 18.0 27.0 0.00 0.00 0.00 72 873.9
20260904215851 62 207 22.0 34.0 0.00 0.00 0.00 72 873.9
20260904215651 62 212 20.0 32.0 0.00 0.00 0.00 72 873.9
20260904215452 62 217 20.0 30.0 0.00 0.00 0.00 72 873.9
20260904215252 62 214 22.0 30.0 0.00 0.00 0.00 72 873.9
20260904215050 62 215 22.0 30.0 0.00 0.00 0.00 72 873.9
20260904214850 62 214 23.0 33.0 0.00 0.00 0.00 72 873.9
20260904214650 62 212 23.0 33.0 0.00 0.00 0.00 72 874.0
20260904214450 62 208 23.0 33.0 0.00 0.00 0.00 72 873.9
20260904214250 62 215 24.0 33.0 0.00 0.00 0.00 73 873.9
20260904214050 62 216 22.0 28.0 0.00 0.00 0.00 73 873.9
20260904213850 62 212 21.0 30.0 0.00 0.00 0.00 73 873.9
20260904213650 62 210 24.0 30.0 0.00 0.00 0.00 72 873.9
20260904213450 62 208 23.0 33.0 0.00 0.00 0.00 73 873.9
20260904213250 63 208 23.0 33.0 0.00 0.00 0.00 73 873.9
20260904213048 63 210 22.0 31.0 0.00 0.00 0.00 73 873.9
20260904212848 63 216 22.0 32.0 0.00 0.00 0.00 73 874.0
20260904212648 63 212 22.0 30.0 0.00 0.00 0.00 73 873.9
20260904212446 63 214 23.0 29.0 0.00 0.00 0.00 73 873.9
20260904212246 62 213 22.0 29.0 0.00 0.00 0.00 73 873.9
20260904212046 62 212 20.0 27.0 0.00 0.00 0.00 73 873.8
20260904211846 62 209 22.0 33.0 0.00 0.00 0.00 73 873.9
20260904211646 62 209 23.0 36.0 0.00 0.00 0.00 73 873.9
20260904211446 62 214 23.0 36.0 0.00 0.00 0.00 73 873.8
20260904211246 62 214 21.0 30.0 0.00 0.00 0.00 73 873.8
20260904211044 62 212 21.0 33.0 0.00 0.00 0.00 73 873.8
20260904210844 62 209 23.0 33.0 0.00 0.00 0.00 73 873.7
20260904210644 62 213 23.0 31.0 0.00 0.00 0.00 73 873.7
20260904210444 62 215 23.0 35.0 0.00 0.00 0.00 73 873.7
20260904210244 62 209 24.0 44.0 0.00 0.00 0.00 74 873.8
20260904210043 62 205 22.0 30.0 0.00 0.00 0.00 74 873.8
20260904205843 62 212 23.0 32.0 0.00 0.00 0.00 74 873.8
20260904205644 62 203 19.0 29.0 0.00 0.00 0.00 74 873.8
20260904205444 62 202 20.0 44.0 0.00 0.00 0.00 74 873.7
20260904205244 62 203 21.0 29.0 0.00 0.00 0.00 74 873.8
20260904205042 63 210 23.0 35.0 0.00 0.00 0.00 74 873.8
20260904204842 63 210 23.0 35.0 0.00 0.00 0.00 74 873.8
20260904204642 63 209 23.0 34.0 0.00 0.00 0.00 74 873.8
20260904204442 63 207 23.0 34.0 0.00 0.00 0.00 74 873.8
20260904204242 62 209 21.0 32.0 0.00 0.00 0.00 74 873.8
20260904204047 62 211 22.0 32.0 0.00 0.00 0.00 74 873.8
20260904203842 62 213 20.0 29.0 0.00 0.00 0.00 74 873.7
20260904203642 62 205 22.0 37.0 0.00 0.00 0.00 74 873.7
20260904203442 62 209 22.0 37.0 0.00 0.00 0.00 74 873.8
20260904203242 62 211 23.0 35.0 0.00 0.00 0.00 74 873.9
20260904203040 62 203 21.0 33.0 0.00 0.00 0.00 74 873.9
20260904202840 62 210 22.0 34.0 0.00 0.00 0.00 74 873.9
20260904202640 62 211 21.0 34.0 0.00 0.00 0.00 74 873.9
20260904202440 62 206 21.0 34.0 0.00 0.00 0.00 74 873.9
20260904202240 62 206 22.0 37.0 0.00 0.00 0.00 74 873.8
20260904201840 62 213 22.0 33.0 0.00 0.00 0.00 74 873.8
20260904201638 62 210 23.0 35.0 0.00 0.00 0.00 75 873.8
20260904201438 62 213 25.0 35.0 0.00 0.00 0.00 75 873.8
20260904201238 62 212 24.0 32.0 0.00 0.00 0.00 75 873.8
20260904201036 62 207 24.0 29.0 0.00 0.00 0.00 75 873.9
20260904200836 62 205 22.0 34.0 0.00 0.00 0.00 75 873.8
20260904200636 62 207 20.0 30.0 0.00 0.00 0.00 75 873.9
20260904200436 62 204 22.0 33.0 0.00 0.00 0.00 75 873.9
20260904200236 62 203 23.0 33.0 0.00 0.00 0.00 75 873.9
20260904200036 62 209 21.0 40.0 0.00 0.00 0.00 75 874.0
20260904195836 62 207 21.0 40.0 0.00 0.00 0.00 75 874.2
20260904195636 62 211 21.0 31.0 0.00 0.00 0.00 75 874.3
20260904195436 62 208 22.0 33.0 0.00 0.00 0.00 75 874.3
20260904195236 62 217 25.0 33.0 0.00 0.00 0.00 75 874.2
20260904195025 62 218 23.0 35.0 0.00 0.00 0.00 76 874.2
20260904194825 62 208 24.0 35.0 0.00 0.00 0.00 76 874.2
20260904194625 62 209 24.0 38.0 0.00 0.00 0.00 76 874.2
20260904194425 61 208 25.0 35.0 0.00 0.00 0.00 76 874.3
20260904194225 61 208 23.0 32.0 0.00 0.00 0.00 76 874.3
20260904194024 61 214 23.0 38.0 0.00 0.00 0.00 76 874.4
20260904193824 61 215 23.0 38.0 0.00 0.00 0.00 76 874.4
20260904193624 61 212 20.0 30.0 0.00 0.00 0.00 76 874.5
20260904193424 61 207 19.0 30.0 0.00 0.00 0.00 76 874.5
20260904193224 61 207 18.0 25.0 0.00 0.00 0.00 76 874.4
20260904193022 61 214 21.0 34.0 0.00 0.00 0.00 76 874.4
20260904192822 61 212 21.0 34.0 0.00 0.00 0.00 76 874.4
20260904192622 61 204 21.0 31.0 0.00 0.00 0.00 76 874.4
20260904192422 61 202 21.0 31.0 0.00 0.00 0.00 76 874.4
20260904192222 61 199 21.0 35.0 0.00 0.00 0.00 76 874.4
20260904192022 61 204 20.0 33.0 0.00 0.00 0.00 76 874.5
20260904191822 62 213 20.0 33.0 0.00 0.00 0.00 76 874.5
20260904191622 62 204 19.0 27.0 0.00 0.00 0.00 76 874.6
20260904191422 62 200 18.0 27.0 0.00 0.00 0.00 76 874.6
20260904191222 61 205 20.0 31.0 0.00 0.00 0.00 76 874.6